This is the latest recevied weather packets stored in our database for station/object OE6ACM-10. If no packets are shown the sender has not sent any weather packets the latest 10 day(s).
| Time | Temp. | Humidity | Pressure | Rain* | Wind** | Luminosity | Snow |
|---|---|---|---|---|---|---|---|
| 1788360686 | 27.78° C | 100% | 930.4 hPa | - | - | - | - |
| 1788360386 | 27.22° C | 100% | 930.4 hPa | - | - | - | - |
| 1788360086 | 27.78° C | 100% | 930.5 hPa | - | - | - | - |
| 1788359786 | 27.78° C | 100% | 930.4 hPa | - | - | - | - |
| 1788359486 | 28.89° C | 100% | 930.2 hPa | - | - | - | - |
| 1788359186 | 29.44° C | 100% | 930.1 hPa | - | - | - | - |
| 1788358907 | 30° C | 100% | 930 hPa | - | - | - | - |
| 1788358586 | 30.56° C | 100% | 930 hPa | - | - | - | - |
| 1788358286 | 31.11° C | 100% | 930 hPa | - | - | - | - |
| 1788357986 | 31.67° C | 100% | 930.1 hPa | - | - | - | - |
| 1788357686 | 31.67° C | 100% | 930.1 hPa | - | - | - | - |
| 1788357386 | 32.22° C | 100% | 930.1 hPa | - | - | - | - |
| 1788357086 | 32.22° C | 100% | 930.2 hPa | - | - | - | - |
| 1788356786 | 32.78° C | 100% | 930.2 hPa | - | - | - | - |
| 1788356486 | 32.78° C | 100% | 930.2 hPa | - | - | - | - |
| 1788356186 | 33.33° C | 100% | 930.1 hPa | - | - | - | - |
| 1788355886 | 33.33° C | 100% | 930.2 hPa | - | - | - | - |
| 1788355586 | 33.33° C | 100% | 930.2 hPa | - | - | - | - |
| 1788355286 | 33.33° C | 100% | 930.2 hPa | - | - | - | - |
| 1788354986 | 31.67° C | 100% | 930.3 hPa | - | - | - | - |
| 1788354686 | 32.22° C | 100% | 930.3 hPa | - | - | - | - |
| 1788354386 | 32.78° C | 100% | 930.3 hPa | - | - | - | - |
| 1788354086 | 34.44° C | 100% | 930.2 hPa | - | - | - | - |
| 1788353786 | 34.44° C | 100% | 930.2 hPa | - | - | - | - |
| 1788353486 | 32.78° C | 100% | 930.3 hPa | - | - | - | - |
* Rain since midnight (hover to see other rain measurements)
** Current wind speed in m/s (hover to see current wind gust speed)